Flag for US Virgin Islands Weather past 2 weeks in Christiansted, US Virgin Islands

Now
86 °F

Passing clouds.


Feels Like: 97 °F
Forecast: 80 / 88 °F
Wind: 16 mph from Southeast

Location: Christiansted / Henry E. Rohlsen Airport - Saint Croix

Current Time: Aug 28, 2015 at 1:28:00 PM

Latest Report: Aug 28, 2015 at 12:53 PM


Visibility: 10 mi

Pressure: 30.02 "Hg

Humidity: 75%

Dew point: 77 °F

Location of ChristianstedLocation

Historic Weather in Christiansted — Graph

°F

Christiansted temperature yesterday

Maximum temperature yesterday: 88 °F (at 11:53 AM)
Minimum temperature yesterday: 77 °F (at 7:53 PM)
Average temperature yesterday: 81 °F

Past Weeks' High & Low Weather Summary

 TemperatureHumidityPressure
High93 °F (Aug 26, 12:53 PM)100% (Aug 27, 9:19 PM)30.07 "Hg (Aug 27, 9:19 PM)
Low76 °F (Aug 23, 1:53 AM)52% (Aug 17, 12:53 PM)29.72 "Hg (Aug 27, 7:53 PM)
Average83 °F75%29.96 "Hg
* Reported Aug 13 11:53 AM — Aug 28 11:53 AM, Christiansted, Weather by CustomWeather, © 2015

Note: Actual official high and low records may vary slightly from our data, if they occured in-between our weather recording intervals... More about our weather records

Advertising

Christiansted weather history for previous 24 hours

 ConditionsComfort  
Time TempWeatherWind HumidityBarometerVisibility
11:53 AM
Fri, Aug 28
87 °FScattered clouds.17 mph75%30.02 "Hg10 mi
10:53 AM87 °FPartly sunny.20 mph75%30.02 "Hg10 mi
9:53 AM86 °FPartly sunny.20 mph75%30.01 "Hg10 mi
8:53 AM83 °FScattered clouds.15 mph85%30.01 "Hg10 mi
7:53 AM83 °FScattered clouds.16 mph85%30.00 "Hg10 mi
6:53 AM82 °FPassing clouds.18 mph82%29.98 "Hg10 mi
5:53 AM81 °FPassing clouds.16 mph82%29.96 "Hg10 mi
4:53 AM81 °FLight rain. Passing clouds.21 mph74%29.93 "Hg10 mi
3:53 AM81 °FLight rain. Overcast.24 mph77%29.93 "Hg10 mi
2:53 AM77 °FLight rain. Overcast.25 mph82%29.95 "Hg7 mi
1:53 AM76 °FHeavy rain. Mostly cloudy.30 mph82%29.98 "Hg3 mi
12:53 AM79 °FLight rain. Overcast.25 mph79%29.95 "Hg9 mi
11:53 PM
Thu, Aug 27
79 °FLight rain. Mostly cloudy.23 mph82%29.95 "Hg9 mi
11:17 PM79 °FLight rain. Overcast.28 mph84%29.95 "Hg9 mi
10:53 PM79 °FOvercast.28 mph84%29.96 "Hg9 mi
9:53 PM78 °FLight rain. Fog.29 mph96%29.91 "Hg6 mi
9:44 PM77 °FLight rain. Fog.32 mph94%29.92 "Hg6 mi
9:33 PM79 °FRain. Fog.32 mph94%29.91 "Hg4 mi
9:19 PM77 °FHeavy rain. Fog.36 mph100%29.89 "Hg1 mi
8:53 PM78 °FHeavy rain. Fog.35 mph93%29.88 "Hg1 mi
8:44 PM78 °FHeavy rain. Fog.38 mph93%29.85 "Hg2 mi
8:25 PM79 °FMostly cloudy.32 mph90%29.82 "Hg7 mi
7:53 PM77 °FRain. Fog.32 mph94%29.72 "Hg4 mi
6:53 PM78 °FLight rain. Overcast.29 mph93%29.82 "Hg7 mi
6:23 PM78 °FLight rain. Fog.24 mph93%29.82 "Hg5 mi
5:53 PM78 °FLight rain. Fog.25 mph90%29.81 "Hg4 mi
4:53 PM81 °FBroken clouds.25 mph88%29.79 "Hg10 mi
3:53 PM83 °FMostly cloudy.13 mph82%29.80 "Hg10 mi
2:53 PM86 °FBroken clouds.16 mph70%29.79 "Hg10 mi
1:53 PM85 °FPartly sunny.14 mph72%29.82 "Hg10 mi
1:42 PM83 °FMostly cloudy.15 mph82%29.83 "Hg10 mi
1:15 PM83 °FLight rain. Cloudy.14 mph88%29.84 "Hg9 mi
Weather by CustomWeather, © 2015

See weather overviewHow to use our weather pages